Regional Weather Roundup
Issued by NWS

Home | Current Version | Previous Version | Graphics & Text | Print | Product List | Glossary On
Versions: 1 2 3 4 5 6 7 8 9 10 11 12 13 14 15 16 17 18 19 20 21 22 23 24 25 26 27 28 29 30 31 32 33 34 35 36 37 38 39 40 41 42 43 44 45 46 47 48 49 50
000
ASUS43 KLMK 032210
RWRKY
KENTUCKY REGIONAL WEATHER ROUNDUP
NATIONAL WEATHER SERVICE LOUISVILLE KY
600 PM EDT MON AUG 03 2015

NOTE "FAIR" INDICATES FEW OR NO CLOUDS BELOW 12,000 FEET
WITH NO SIGNIFICANT WEATHER AND/OR OBSTRUCTIONS TO VISIBILITY.

KYZ001>023-026-027-061>063-070>075-032300-
WESTERN AND SOUTH CENTRAL KENTUCKY

CITY           SKY/WX    TMP DP  RH WIND       PRES   REMARKS
PADUCAH        MOSUNNY   93  71  48 W6        29.89F HX 100
HENDERSON      SUNNY     91  72  52 W10       29.86S HX  98
OWENSBORO      MOSUNNY   92  75  57 W12       29.87F HX 102
HOPKINSVILLE   SUNNY     91  70  51 SW13      29.91S HX  96
BOWLING GREEN  MOSUNNY   93  69  45 W14       29.90S HX  98
GLASGOW        PTSUNNY  N/A N/A N/A SW7       29.90S
$$

KYZ024-025-028>034-038-045-046-053-032300-
NORTH CENTRAL KENTUCKY

CITY           SKY/WX    TMP DP  RH WIND       PRES   REMARKS
LOUISVILLE/SDF MOSUNNY   92  67  43 W15       29.84S HX  95
LOUISVILLE/LOU MOSUNNY   92  68  45 W14       29.85S HX  96
FORT KNOX      SUNNY     88  69  52 W10       29.86S HX  93
$$

KYZ035>037-039>044-047>052-055>060-089>105-032300-
NORTHEAST KENTUCKY

CITY           SKY/WX    TMP DP  RH WIND       PRES   REMARKS
LEXINGTON      SUNNY     89  69  51 SW9G18    29.88S HX  93
COVINGTON      PTSUNNY   84  69  60 SW6       29.86S
FRANKFORT      SUNNY     89  68  49 W8G17     29.85F HX  93
$$

KYZ054-064>069-076>088-106>120-032300-
SOUTHEAST KENTUCKY

CITY           SKY/WX    TMP DP  RH WIND       PRES   REMARKS
JACKSON        SUNNY     85  68  56 VRB5      29.92S
LONDON         SUNNY     89  66  46 SW8       29.92F HX  91
SOMERSET       SUNNY     88  64  45 W12       29.92S
MIDDLESBORO    MOSUNNY   87  67  52 S6        29.94S
MONTICELLO     CLEAR     90  72  55 SW10      29.94F HX  97
$$




USA.gov is the U.S. government's official web portal to all federal, state and local government web resources and services.